Location: Dana
(41.8364°N, 106.7042°W)
Time: 13:26:58
(UTC+00:00)

Transit 4A - Pass Details

Date: 11 May 2026
Orbit: 860 x 980 km, 66.8° (Epoch: 7 June)

Event Time Altitude Azimuth Distance (km) Brightness Sun altitude
Rises 16:45:41 0° 233° (SW) 3,539 10.8 52.3°
Reaches altitude 10° 16:48:20 10° 241° (WSW) 2,620 10.2 52.7°
Maximum altitude 16:54:02 40° 309° (NW) 1,369 8.9 53.6°
Drops below altitude 10° 16:59:56 10° 18° (NNE) 2,705 10.4 54.6°
Sets 17:02:43 0° 26° (NNE) 3,668 11.0 55.0°
